Location: Albany
(35.0170°S, 117.8920°E)
Time: 20:35:09
(UTC+08:00)

A-11 Canister half - Pass Details

Date: 30 January 2021
Orbit: 1525 x 1684 km, 47.3° (Epoch: 03 March)

Event Time Altitude Azimuth Distance (km) Brightness Sun altitude
Rises 09:57:35 0° 248° (WSW) 4,827 11.2 53.6°
Reaches altitude 10° 10:02:05 10° 265° (W) 3,804 10.8 54.5°
Maximum altitude 10:07:50 18° 303° (WNW) 3,182 10.7 55.6°
Drops below altitude 10° 10:13:31 10° 341° (NNW) 3,717 11.2 56.7°
Sets 10:17:52 0° 359° (N) 4,673 11.7 57.5°
